| time (UTC) | temp F | wind direction | speed knots | gust knots | rain 1hr in | rain 24hr in | rain mn in | humidity % | barometer mb |
| 20260510104538 | 47 | 1 | 3.5 | 4.3 | 0.00 | 0.00 | 0.00 | 96 | 1014.6 |
| 20260510104035 | 46 | 6 | 0.9 | 3.5 | 0.00 | 0.00 | 0.00 | 95 | 1014.7 |
| 20260510103539 | 46 | 0 | 0.9 | 4.3 | 0.00 | 0.00 | 0.00 | 95 | 1014.6 |
| 20260510103045 | 46 | 4 | 1.7 | 4.3 | 0.00 | 0.00 | 0.00 | 95 | 1014.7 |
| 20260510102535 | 46 | 360 | 2.6 | 4.3 | 0.00 | 0.00 | 0.00 | 95 | 1014.5 |
| 20260510102037 | 46 | 6 | 1.7 | 3.5 | 0.00 | 0.00 | 0.00 | 95 | 1014.6 |
| 20260510101544 | 46 | 346 | 1.7 | 3.5 | 0.00 | 0.00 | 0.00 | 95 | 1014.7 |
| 20260510101035 | 46 | 1 | 2.6 | 3.5 | 0.00 | 0.00 | 0.00 | 95 | 1014.6 |
| 20260510100536 | 47 | 19 | 2.6 | 3.5 | 0.00 | 0.00 | 0.00 | 95 | 1014.5 |
| 20260510100044 | 46 | 360 | 1.7 | 3.5 | 0.00 | 0.00 | 0.00 | 95 | 1014.6 |
| 20260510095535 | 46 | 358 | 1.7 | 3.5 | 0.00 | 0.00 | 0.00 | 94 | 1014.4 |
| 20260510095034 | 46 | 23 | 0.9 | 1.7 | 0.00 | 0.00 | 0.00 | 94 | 1014.5 |
| 20260510094556 | 46 | 9 | 0.9 | 3.5 | 0.00 | 0.00 | 0.00 | 94 | 1014.5 |
| 20260510094036 | 46 | 342 | 1.7 | 3.5 | 0.00 | 0.00 | 0.00 | 94 | 1014.4 |
| 20260510093536 | 47 | 350 | 1.7 | 3.5 | 0.00 | 0.00 | 0.00 | 94 | 1014.4 |
| 20260510093100 | 47 | 39 | 1.7 | 3.5 | 0.00 | 0.00 | 0.00 | 94 | 1014.3 |
| 20260510092535 | 47 | 358 | 1.7 | 3.5 | 0.00 | 0.00 | 0.00 | 94 | 1014.3 |
| 20260510092037 | 47 | 30 | 1.7 | 3.5 | 0.00 | 0.00 | 0.00 | 94 | 1014.2 |
| 20260510091545 | 47 | 349 | 1.7 | 3.5 | 0.00 | 0.00 | 0.00 | 93 | 1014.3 |
| 20260510091035 | 47 | 354 | 2.6 | 2.6 | 0.00 | 0.00 | 0.00 | 94 | 1014.2 |
| 20260510090535 | 47 | 23 | 0.9 | 2.6 | 0.00 | 0.00 | 0.00 | 92 | 1014.1 |
| 20260510090044 | 48 | 226 | 0.0 | 2.6 | 0.00 | 0.00 | 0.00 | 93 | 1014.1 |
| 20260510085537 | 48 | 359 | 1.7 | 3.5 | 0.00 | 0.00 | 0.00 | 94 | 1014.0 |
| 20260510085038 | 47 | 337 | 1.7 | 3.5 | 0.00 | 0.00 | 0.00 | 93 | 1014.1 |
| 20260510084548 | 48 | 27 | 0.9 | 2.6 | 0.00 | 0.00 | 0.00 | 93 | 1014.0 |
| 20260510084035 | 48 | 345 | 0.9 | 2.6 | 0.00 | 0.00 | 0.00 | 93 | 1014.0 |
| 20260510083535 | 48 | 345 | 1.7 | 2.6 | 0.00 | 0.00 | 0.00 | 93 | 1013.9 |
| 20260510083058 | 48 | 347 | 0.0 | 2.6 | 0.00 | 0.00 | 0.00 | 92 | 1014.0 |
| 20260510082534 | 48 | 340 | 0.9 | 3.5 | 0.00 | 0.00 | 0.00 | 93 | 1013.9 |
| 20260510082034 | 48 | 23 | 1.7 | 3.5 | 0.00 | 0.00 | 0.00 | 93 | 1013.8 |
| 20260510081547 | 48 | 345 | 0.9 | 2.6 | 0.00 | 0.00 | 0.00 | 91 | 1013.6 |
| 20260510081035 | 48 | 345 | 1.7 | 2.6 | 0.00 | 0.00 | 0.00 | 92 | 1013.7 |
| 20260510080535 | 49 | 345 | 0.0 | 1.7 | 0.00 | 0.00 | 0.00 | 91 | 1013.7 |
| 20260510080045 | 49 | 0 | 0.0 | 2.6 | 0.00 | 0.00 | 0.00 | 90 | 1013.7 |
| 20260510075534 | 49 | 348 | 0.9 | 2.6 | 0.00 | 0.00 | 0.00 | 91 | 1013.6 |
| 20260510075035 | 49 | 49 | 0.9 | 2.6 | 0.00 | 0.00 | 0.00 | 91 | 1013.5 |
| 20260510074546 | 49 | 347 | 0.0 | 2.6 | 0.00 | 0.00 | 0.00 | 90 | 1013.5 |
| 20260510074034 | 49 | 343 | 0.9 | 1.7 | 0.00 | 0.00 | 0.00 | 89 | 1013.4 |
| 20260510073535 | 50 | 311 | 0.0 | 2.6 | 0.00 | 0.00 | 0.00 | 88 | 1013.4 |
| 20260510073050 | 50 | 0 | 0.0 | 3.5 | 0.00 | 0.00 | 0.00 | 89 | 1013.2 |
| 20260510072535 | 50 | 48 | 1.7 | 3.5 | 0.00 | 0.00 | 0.00 | 90 | 1013.2 |
| 20260510072035 | 49 | 335 | 1.7 | 3.5 | 0.00 | 0.00 | 0.00 | 90 | 1013.2 |
| 20260510071540 | 49 | 5 | 0.9 | 3.5 | 0.00 | 0.00 | 0.00 | 90 | 1013.3 |
| 20260510071034 | 49 | 1 | 0.9 | 3.5 | 0.00 | 0.00 | 0.00 | 90 | 1013.4 |
| 20260510070534 | 49 | 335 | 0.9 | 3.5 | 0.00 | 0.00 | 0.00 | 90 | 1013.3 |
| 20260510070041 | 49 | 347 | 2.6 | 3.5 | 0.00 | 0.00 | 0.00 | 90 | 1013.4 |
| 20260510065537 | 49 | 10 | 1.7 | 3.5 | 0.00 | 0.00 | 0.00 | 90 | 1013.4 |
| 20260510065035 | 49 | 360 | 0.9 | 1.7 | 0.00 | 0.00 | 0.00 | 89 | 1013.5 |
| 20260510064540 | 50 | 21 | 1.7 | 4.3 | 0.00 | 0.00 | 0.00 | 88 | 1013.5 |
| 20260510064034 | 50 | 360 | 0.9 | 4.3 | 0.00 | 0.00 | 0.00 | 88 | 1013.4 |
| 20260510063534 | 50 | 4 | 2.6 | 4.3 | 0.00 | 0.00 | 0.00 | 89 | 1013.3 |
| 20260510063045 | 49 | 181 | 0.9 | 3.5 | 0.00 | 0.00 | 0.00 | 89 | 1013.2 |
| 20260510062537 | 50 | 347 | 1.7 | 3.5 | 0.00 | 0.00 | 0.00 | 88 | 1013.3 |
| 20260510062035 | 50 | 341 | 1.7 | 5.2 | 0.00 | 0.00 | 0.00 | 86 | 1013.2 |
| 20260510061540 | 51 | 5 | 1.7 | 8.7 | 0.00 | 0.00 | 0.00 | 85 | 1013.3 |
| 20260510061035 | 51 | 19 | 2.6 | 8.7 | 0.00 | 0.00 | 0.00 | 84 | 1013.2 |
| 20260510060535 | 52 | 25 | 4.3 | 8.7 | 0.00 | 0.00 | 0.00 | 85 | 1013.2 |
| 20260510060044 | 50 | 357 | 4.3 | 7.0 | 0.00 | 0.00 | 0.00 | 87 | 1013.4 |
| 20260510055535 | 50 | 344 | 2.6 | 6.1 | 0.00 | 0.00 | 0.00 | 87 | 1013.4 |
| 20260510055034 | 50 | 352 | 2.6 | 6.1 | 0.00 | 0.00 | 0.00 | 87 | 1013.5 |
| 20260510054541 | 50 | 353 | 3.5 | 5.2 | 0.00 | 0.00 | 0.00 | 86 | 1013.4 |
| 20260510054036 | 50 | 343 | 1.7 | 3.5 | 0.00 | 0.00 | 0.00 | 85 | 1013.6 |
| 20260510053535 | 51 | 11 | 1.7 | 3.5 | 0.00 | 0.00 | 0.00 | 83 | 1013.6 |
| 20260510053047 | 52 | 0 | 0.9 | 2.6 | 0.00 | 0.00 | 0.00 | 81 | 1013.6 |
| 20260510052535 | 53 | 0 | 0.0 | 7.0 | 0.00 | 0.00 | 0.00 | 80 | 1013.6 |
| 20260510052035 | 53 | 345 | 2.6 | 7.0 | 0.00 | 0.00 | 0.00 | 82 | 1013.5 |
| 20260510051557 | 51 | 15 | 4.3 | 7.0 | 0.00 | 0.00 | 0.00 | 84 | 1013.3 |
| 20260510051037 | 52 | 1 | 2.6 | 6.1 | 0.00 | 0.00 | 0.00 | 83 | 1013.2 |
| 20260510050535 | 52 | 352 | 1.7 | 6.1 | 0.00 | 0.00 | 0.00 | 84 | 1013.3 |
| 20260510050048 | 51 | 321 | 3.5 | 6.1 | 0.00 | 0.00 | 0.00 | 85 | 1013.4 |
| 20260510045535 | 49 | 322 | 3.5 | 6.1 | 0.00 | 0.00 | 0.00 | 88 | 1013.4 |
| 20260510045034 | 49 | 13 | 2.6 | 5.2 | 0.00 | 0.00 | 0.00 | 87 | 1013.5 |
| 20260510044601 | 49 | 328 | 0.9 | 8.7 | 0.00 | 0.00 | 0.00 | 87 | 1013.4 |
| 20260510044036 | 50 | 337 | 3.5 | 8.7 | 0.00 | 0.00 | 0.00 | 86 | 1013.4 |
| 20260510043535 | 49 | 53 | 1.7 | 5.2 | 0.00 | 0.00 | 0.00 | 87 | 1013.5 |
| 20260510043050 | 49 | 336 | 4.3 | 5.2 | 0.00 | 0.00 | 0.00 | 87 | 1013.5 |
| 20260510042536 | 49 | 0 | 1.7 | 5.2 | 0.00 | 0.00 | 0.00 | 87 | 1013.5 |
| 20260510042034 | 49 | 11 | 2.6 | 5.2 | 0.00 | 0.00 | 0.00 | 88 | 1013.6 |
| 20260510041547 | 49 | 345 | 1.7 | 5.2 | 0.00 | 0.00 | 0.00 | 87 | 1013.7 |
| 20260510041034 | 50 | 3 | 1.7 | 5.2 | 0.00 | 0.00 | 0.00 | 86 | 1013.6 |
| 20260510040535 | 50 | 350 | 2.6 | 5.2 | 0.00 | 0.00 | 0.00 | 87 | 1013.7 |
| 20260510040051 | 49 | 358 | 2.6 | 5.2 | 0.00 | 0.00 | 0.00 | 86 | 1013.6 |
| 20260510035534 | 50 | 271 | 0.9 | 6.1 | 0.00 | 0.00 | 0.00 | 86 | 1013.9 |
| 20260510035034 | 50 | 0 | 2.6 | 6.1 | 0.00 | 0.00 | 0.00 | 86 | 1013.8 |
| 20260510034547 | 50 | 2 | 3.5 | 6.1 | 0.00 | 0.00 | 0.00 | 86 | 1013.9 |
| 20260510034035 | 50 | 359 | 3.5 | 5.2 | 0.00 | 0.00 | 0.00 | 85 | 1013.8 |
| 20260510033535 | 50 | 8 | 3.5 | 5.2 | 0.00 | 0.00 | 0.00 | 85 | 1013.9 |
| 20260510033047 | 50 | 8 | 4.3 | 5.2 | 0.00 | 0.00 | 0.00 | 85 | 1013.7 |
| 20260510032536 | 50 | 25 | 1.7 | 5.2 | 0.00 | 0.00 | 0.00 | 85 | 1013.8 |
| 20260510032034 | 50 | 6 | 3.5 | 6.1 | 0.00 | 0.00 | 0.00 | 85 | 1013.7 |
| 20260510031542 | 50 | 343 | 3.5 | 6.1 | 0.00 | 0.00 | 0.00 | 86 | 1013.9 |
| 20260510031034 | 50 | 17 | 3.5 | 5.2 | 0.00 | 0.00 | 0.00 | 86 | 1013.8 |
| 20260510030534 | 50 | 37 | 3.5 | 5.2 | 0.00 | 0.00 | 0.00 | 86 | 1013.8 |
| 20260510030056 | 50 | 354 | 2.6 | 4.3 | 0.00 | 0.00 | 0.00 | 86 | 1013.9 |
| 20260510025534 | 50 | 342 | 0.9 | 4.3 | 0.00 | 0.00 | 0.00 | 85 | 1013.9 |
| 20260510025035 | 50 | 354 | 2.6 | 4.3 | 0.00 | 0.00 | 0.00 | 85 | 1013.8 |
| 20260510024541 | 51 | 351 | 2.6 | 3.5 | 0.00 | 0.00 | 0.00 | 84 | 1013.8 |
| 20260510024034 | 51 | 359 | 2.6 | 3.5 | 0.00 | 0.00 | 0.00 | 84 | 1013.8 |
| 20260510023535 | 51 | 11 | 2.6 | 4.3 | 0.00 | 0.00 | 0.00 | 83 | 1013.7 |
| 20260510023047 | 51 | 345 | 2.6 | 4.3 | 0.00 | 0.00 | 0.00 | 83 | 1013.7 |
| 20260510022608 | 52 | 347 | 1.7 | 3.5 | 0.00 | 0.00 | 0.00 | 83 | 1013.6 |
| 20260510022033 | 52 | 325 | 0.0 | 3.5 | 0.00 | 0.00 | 0.00 | 82 | 1013.5 |
| 20260510021543 | 52 | 339 | 2.6 | 3.5 | 0.00 | 0.00 | 0.00 | 83 | 1013.3 |
| 20260510021034 | 52 | 346 | 0.9 | 3.5 | 0.00 | 0.00 | 0.00 | 81 | 1013.2 |
| 20260510020538 | 53 | 0 | 0.0 | 3.5 | 0.00 | 0.00 | 0.00 | 81 | 1013.2 |
| 20260510020047 | 53 | 0 | 0.9 | 4.3 | 0.00 | 0.00 | 0.00 | 80 | 1013.0 |
| 20260510015534 | 53 | 0 | 0.0 | 4.3 | 0.00 | 0.00 | 0.00 | 80 | 1012.8 |
| 20260510015034 | 53 | 347 | 2.6 | 5.2 | 0.00 | 0.00 | 0.00 | 80 | 1012.7 |
| 20260510014547 | 53 | 12 | 3.5 | 5.2 | 0.00 | 0.00 | 0.00 | 80 | 1012.7 |
| 20260510014034 | 53 | 6 | 3.5 | 4.3 | 0.00 | 0.00 | 0.00 | 80 | 1012.7 |
| 20260510013538 | 54 | 356 | 2.6 | 3.5 | 0.00 | 0.00 | 0.00 | 79 | 1012.5 |
| 20260510013046 | 54 | 6 | 0.9 | 4.3 | 0.00 | 0.00 | 0.00 | 78 | 1012.5 |
| 20260510012536 | 55 | 355 | 2.6 | 4.3 | 0.00 | 0.00 | 0.00 | 77 | 1012.4 |
| 20260510012034 | 55 | 343 | 2.6 | 3.5 | 0.00 | 0.00 | 0.00 | 76 | 1012.1 |
| 20260510011548 | 55 | 352 | 0.9 | 5.2 | 0.00 | 0.00 | 0.00 | 76 | 1012.1 |
| 20260510011035 | 55 | 341 | 1.7 | 5.2 | 0.00 | 0.00 | 0.00 | 75 | 1012.2 |
| 20260510010535 | 55 | 340 | 2.6 | 3.5 | 0.00 | 0.00 | 0.00 | 75 | 1012.1 |
| 20260510010044 | 56 | 354 | 0.0 | 2.6 | 0.00 | 0.00 | 0.00 | 74 | 1012.2 |
| 20260510005534 | 56 | 354 | 0.9 | 4.3 | 0.00 | 0.00 | 0.00 | 73 | 1012.1 |
| 20260510005033 | 57 | 350 | 0.9 | 4.3 | 0.00 | 0.00 | 0.00 | 72 | 1012.0 |
| 20260510004552 | 58 | 356 | 0.0 | 3.5 | 0.00 | 0.00 | 0.00 | 70 | 1011.9 |
| 20260510004038 | 58 | 357 | 0.9 | 3.5 | 0.00 | 0.00 | 0.00 | 68 | 1011.9 |
| 20260510003534 | 59 | 285 | 0.9 | 2.6 | 0.00 | 0.00 | 0.00 | 66 | 1011.8 |
| 20260510003051 | 59 | 338 | 0.9 | 2.6 | 0.00 | 0.00 | 0.00 | 65 | 1011.7 |
| 20260510002534 | 60 | 0 | 0.0 | 1.7 | 0.00 | 0.00 | 0.00 | 63 | 1011.6 |
| 20260510002034 | 61 | 0 | 0.9 | 2.6 | 0.00 | 0.00 | 0.00 | 61 | 1011.6 |
| 20260510001537 | 61 | 54 | 0.9 | 2.6 | 0.00 | 0.00 | 0.00 | 61 | 1011.4 |
| 20260510001034 | 62 | 349 | 0.9 | 2.6 | 0.00 | 0.00 | 0.00 | 59 | 1011.3 |
| 20260510000535 | 62 | 280 | 0.9 | 2.6 | 0.00 | 0.00 | 0.00 | 58 | 1011.2 |
| 20260510000051 | 63 | 297 | 0.9 | 1.7 | 0.00 | 0.00 | 0.00 | 57 | 1011.2 |
| 20260509235534 | 64 | 0 | 0.0 | 2.6 | 0.00 | 0.00 | 0.00 | 52 | 1011.1 |
| 20260509235034 | 65 | 0 | 0.0 | 2.6 | 0.00 | 0.00 | 0.00 | 53 | 1011.0 |
| 20260509234544 | 66 | 283 | 0.9 | 2.6 | 0.00 | 0.00 | 0.00 | 49 | 1010.9 |
| 20260509234036 | 67 | 0 | 0.9 | 5.2 | 0.00 | 0.00 | 0.00 | 48 | 1010.8 |
| 20260509233534 | 68 | 327 | 1.7 | 5.2 | 0.00 | 0.00 | 0.00 | 44 | 1010.8 |
| 20260509233043 | 69 | 345 | 1.7 | 3.5 | 0.00 | 0.00 | 0.00 | 42 | 1010.8 |
| 20260509232538 | 69 | 0 | 0.0 | 4.3 | 0.00 | 0.00 | 0.00 | 42 | 1010.8 |
| 20260509232034 | 70 | 6 | 0.9 | 4.3 | 0.00 | 0.00 | 0.00 | 41 | 1010.9 |
| 20260509231542 | 71 | 250 | 1.7 | 4.3 | 0.00 | 0.00 | 0.00 | 41 | 1010.7 |
| 20260509231033 | 72 | 0 | 0.0 | 6.1 | 0.00 | 0.00 | 0.00 | 40 | 1010.7 |
| 20260509230534 | 71 | 280 | 0.9 | 6.1 | 0.00 | 0.00 | 0.00 | 40 | 1010.6 |
| 20260509230039 | 71 | 354 | 2.6 | 7.8 | 0.00 | 0.00 | 0.00 | 40 | 1010.7 |
| 20260509225535 | 72 | 279 | 2.6 | 7.8 | 0.00 | 0.00 | 0.00 | 40 | 1010.7 |
| 20260509225034 | 72 | 312 | 0.9 | 3.5 | 0.00 | 0.00 | 0.00 | 40 | 1010.8 |
| 20260509224547 | 72 | 255 | 2.6 | 5.2 | 0.00 | 0.00 | 0.00 | 43 | 1010.6 |
| 20260509224035 | 72 | 0 | 0.9 | 7.0 | 0.00 | 0.00 | 0.00 | 39 | 1010.7 |
| 20260509223534 | 72 | 50 | 2.6 | 7.0 | 0.00 | 0.00 | 0.00 | 39 | 1010.7 |
| 20260509223045 | 72 | 123 | 1.7 | 8.7 | 0.00 | 0.00 | 0.00 | 38 | 1010.7 |
| 20260509222534 | 72 | 323 | 5.2 | 8.7 | 0.00 | 0.00 | 0.00 | 38 | 1010.5 |
| 20260509222036 | 72 | 352 | 2.6 | 9.6 | 0.00 | 0.00 | 0.00 | 39 | 1010.6 |
| 20260509221542 | 72 | 181 | 1.7 | 9.6 | 0.00 | 0.00 | 0.00 | 41 | 1010.5 |
| 20260509221034 | 72 | 172 | 1.7 | 8.7 | 0.00 | 0.00 | 0.00 | 40 | 1010.6 |
| 20260509220533 | 71 | 27 | 3.5 | 8.7 | 0.00 | 0.00 | 0.00 | 41 | 1010.4 |
| 20260509220041 | 71 | 28 | 2.6 | 9.6 | 0.00 | 0.00 | 0.00 | 41 | 1010.4 |
| 20260509215534 | 70 | 160 | 0.9 | 9.6 | 0.00 | 0.00 | 0.00 | 43 | 1010.5 |
| 20260509215033 | 70 | 318 | 1.7 | 9.6 | 0.00 | 0.00 | 0.00 | 44 | 1010.4 |
| 20260509214539 | 70 | 136 | 0.9 | 5.2 | 0.00 | 0.00 | 0.00 | 47 | 1010.3 |
| 20260509214033 | 71 | 255 | 2.6 | 5.2 | 0.00 | 0.00 | 0.00 | 45 | 1010.3 |
| 20260509213534 | 72 | 13 | 0.9 | 4.3 | 0.00 | 0.00 | 0.00 | 45 | 1010.1 |
| 20260509213038 | 72 | 201 | 1.7 | 5.2 | 0.00 | 0.00 | 0.00 | 42 | 1010.1 |
| 20260509212534 | 72 | 294 | 1.7 | 5.2 | 0.00 | 0.00 | 0.00 | 43 | 1010.1 |
| 20260509212034 | 73 | 0 | 0.0 | 2.6 | 0.00 | 0.00 | 0.00 | 45 | 1010.0 |
| 20260509211549 | 72 | 29 | 0.0 | 3.5 | 0.00 | 0.00 | 0.00 | 45 | 1010.0 |
| 20260509211037 | 72 | 129 | 1.7 | 3.5 | 0.00 | 0.00 | 0.00 | 44 | 1010.1 |
| 20260509210534 | 72 | 101 | 0.9 | 5.2 | 0.00 | 0.00 | 0.00 | 46 | 1010.1 |
| 20260509210100 | 71 | 0 | 0.9 | 5.2 | 0.00 | 0.00 | 0.00 | 47 | 1009.9 |
| 20260509205534 | 71 | 165 | 2.6 | 5.2 | 0.00 | 0.00 | 0.00 | 45 | 1009.9 |
| 20260509205034 | 71 | 180 | 1.7 | 4.3 | 0.00 | 0.00 | 0.00 | 48 | 1010.0 |
| 20260509204543 | 71 | 242 | 0.9 | 7.0 | 0.00 | 0.00 | 0.00 | 45 | 1009.9 |
| 20260509204034 | 72 | 239 | 2.6 | 7.0 | 0.00 | 0.00 | 0.00 | 43 | 1009.9 |
| 20260509203535 | 72 | 149 | 2.6 | 5.2 | 0.00 | 0.00 | 0.00 | 45 | 1009.9 |
| 20260509203042 | 73 | 226 | 3.5 | 9.6 | 0.00 | 0.00 | 0.00 | 46 | 1009.8 |
| 20260509202535 | 73 | 117 | 4.3 | 9.6 | 0.00 | 0.00 | 0.00 | 44 | 1009.7 |
| 20260509202035 | 73 | 166 | 2.6 | 6.1 | 0.00 | 0.00 | 0.00 | 47 | 1009.7 |
| 20260509201547 | 72 | 146 | 1.7 | 2.6 | 0.00 | 0.00 | 0.00 | 48 | 1009.6 |
| 20260509201035 | 72 | 259 | 0.0 | 3.5 | 0.00 | 0.00 | 0.00 | 51 | 1009.7 |
| 20260509200536 | 71 | 0 | 1.7 | 4.3 | 0.00 | 0.00 | 0.00 | 51 | 1009.7 |
| 20260509200049 | 71 | 245 | 1.7 | 5.2 | 0.00 | 0.00 | 0.00 | 47 | 1009.8 |
| 20260509195538 | 71 | 0 | 1.7 | 5.2 | 0.00 | 0.00 | 0.00 | 45 | 1009.8 |
| 20260509195039 | 71 | 0 | 1.7 | 4.3 | 0.00 | 0.00 | 0.00 | 53 | 1009.9 |
| 20260509194549 | 71 | 161 | 1.7 | 4.3 | 0.00 | 0.00 | 0.00 | 52 | 1010.0 |
| 20260509194036 | 71 | 148 | 1.7 | 3.5 | 0.00 | 0.00 | 0.00 | 51 | 1009.9 |
| 20260509193538 | 71 | 159 | 1.7 | 3.5 | 0.00 | 0.00 | 0.00 | 50 | 1009.9 |
| 20260509193045 | 70 | 159 | 0.0 | 5.2 | 0.00 | 0.00 | 0.00 | 52 | 1010.0 |
| 20260509192539 | 70 | 0 | 1.7 | 5.2 | 0.00 | 0.00 | 0.00 | 52 | 1010.0 |
| 20260509192038 | 70 | 153 | 2.6 | 4.3 | 0.00 | 0.00 | 0.00 | 54 | 1010.0 |
| 20260509191549 | 70 | 184 | 2.6 | 3.5 | 0.00 | 0.00 | 0.00 | 54 | 1010.0 |
| 20260509191035 | 70 | 200 | 1.7 | 4.3 | 0.00 | 0.00 | 0.00 | 53 | 1010.1 |
| 20260509190535 | 70 | 147 | 1.7 | 6.1 | 0.00 | 0.00 | 0.00 | 54 | 1010.2 |
| 20260509190047 | 70 | 179 | 3.5 | 6.1 | 0.00 | 0.00 | 0.00 | 53 | 1010.2 |
| 20260509185536 | 70 | 245 | 2.6 | 6.1 | 0.00 | 0.00 | 0.00 | 53 | 1010.2 |
| 20260509185035 | 70 | 161 | 2.6 | 4.3 | 0.00 | 0.00 | 0.00 | 54 | 1010.1 |
| 20260509184554 | 70 | 0 | 0.9 | 7.8 | 0.00 | 0.00 | 0.00 | 53 | 1010.1 |
| 20260509184036 | 70 | 222 | 2.6 | 7.8 | 0.00 | 0.00 | 0.00 | 52 | 1010.1 |
| 20260509183536 | 70 | 235 | 4.3 | 8.7 | 0.00 | 0.00 | 0.00 | 51 | 1010.2 |
| 20260509183048 | 70 | 158 | 2.6 | 8.7 | 0.00 | 0.00 | 0.00 | 49 | 1010.3 |
| 20260509182536 | 71 | 184 | 3.5 | 8.7 | 0.00 | 0.00 | 0.00 | 49 | 1010.3 |
| 20260509182036 | 71 | 148 | 2.6 | 7.8 | 0.00 | 0.00 | 0.00 | 52 | 1010.6 |
| 20260509181557 | 70 | 207 | 4.3 | 7.8 | 0.00 | 0.00 | 0.00 | 51 | 1010.5 |
| 20260509181038 | 69 | 153 | 2.6 | 7.8 | 0.00 | 0.00 | 0.00 | 51 | 1010.7 |
| 20260509180536 | 70 | 154 | 2.6 | 7.8 | 0.00 | 0.00 | 0.00 | 49 | 1010.7 |
| 20260509180048 | 70 | 113 | 2.6 | 6.1 | 0.00 | 0.00 | 0.00 | 49 | 1010.6 |
| 20260509175536 | 69 | 160 | 2.6 | 5.2 | 0.00 | 0.00 | 0.00 | 51 | 1010.9 |
| 20260509175036 | 69 | 124 | 2.6 | 5.2 | 0.00 | 0.00 | 0.00 | 53 | 1010.8 |
| 20260509174547 | 69 | 153 | 2.6 | 5.2 | 0.00 | 0.00 | 0.00 | 54 | 1010.9 |
| 20260509174036 | 69 | 134 | 2.6 | 5.2 | 0.00 | 0.00 | 0.00 | 54 | 1010.9 |
| 20260509173535 | 69 | 158 | 2.6 | 5.2 | 0.00 | 0.00 | 0.00 | 52 | 1010.8 |
| 20260509173049 | 68 | 161 | 0.9 | 3.5 | 0.00 | 0.00 | 0.00 | 54 | 1010.9 |
| 20260509172539 | 67 | 0 | 0.0 | 5.2 | 0.00 | 0.00 | 0.00 | 54 | 1011.0 |
| 20260509172036 | 67 | 184 | 0.9 | 5.2 | 0.00 | 0.00 | 0.00 | 55 | 1011.1 |
| 20260509171549 | 67 | 247 | 0.9 | 3.5 | 0.00 | 0.00 | 0.00 | 55 | 1011.1 |
| 20260509171035 | 67 | 236 | 1.7 | 3.5 | 0.00 | 0.00 | 0.00 | 53 | 1011.0 |
| 20260509170535 | 67 | 0 | 0.9 | 5.2 | 0.00 | 0.00 | 0.00 | 57 | 1011.1 |
| 20260509170050 | 67 | 2 | 0.9 | 5.2 | 0.00 | 0.00 | 0.00 | 55 | 1011.2 |
| 20260509165535 | 67 | 150 | 3.5 | 8.7 | 0.00 | 0.00 | 0.00 | 54 | 1011.2 |
| 20260509165037 | 67 | 168 | 1.7 | 8.7 | 0.00 | 0.00 | 0.00 | 52 | 1011.3 |
| 20260509164545 | 67 | 182 | 1.7 | 7.8 | 0.00 | 0.00 | 0.00 | 53 | 1011.2 |
| 20260509164036 | 67 | 0 | 1.7 | 7.8 | 0.00 | 0.00 | 0.00 | 51 | 1011.2 |
| 20260509163536 | 67 | 240 | 1.7 | 6.1 | 0.00 | 0.00 | 0.00 | 54 | 1011.2 |
| 20260509163042 | 68 | 155 | 2.6 | 6.1 | 0.00 | 0.00 | 0.00 | 54 | 1011.1 |
| 20260509162536 | 68 | 113 | 2.6 | 6.1 | 0.00 | 0.00 | 0.00 | 56 | 1011.2 |
| 20260509162035 | 67 | 186 | 2.6 | 6.1 | 0.00 | 0.00 | 0.00 | 53 | 1011.0 |
| 20260509161547 | 67 | 142 | 2.6 | 6.1 | 0.00 | 0.00 | 0.00 | 56 | 1010.9 |
| 20260509161035 | 66 | 111 | 2.6 | 5.2 | 0.00 | 0.00 | 0.00 | 55 | 1010.9 |
| 20260509160535 | 66 | 205 | 1.7 | 4.3 | 0.00 | 0.00 | 0.00 | 56 | 1011.0 |
| 20260509160048 | 66 | 160 | 2.6 | 7.0 | 0.00 | 0.00 | 0.00 | 56 | 1011.3 |
| 20260509155536 | 66 | 132 | 0.0 | 7.0 | 0.00 | 0.00 | 0.00 | 60 | 1011.2 |
| 20260509155037 | 65 | 241 | 1.7 | 7.0 | 0.00 | 0.00 | 0.00 | 60 | 1011.7 |
| 20260509154546 | 66 | 157 | 0.9 | 5.2 | 0.00 | 0.00 | 0.00 | 57 | 1011.6 |
| 20260509154038 | 66 | 248 | 0.9 | 4.3 | 0.00 | 0.00 | 0.00 | 57 | 1011.6 |
| 20260509153535 | 65 | 182 | 1.7 | 4.3 | 0.00 | 0.00 | 0.00 | 56 | 1011.5 |
| 20260509153059 | 65 | 0 | 0.0 | 2.6 | 0.00 | 0.00 | 0.00 | 58 | 1011.5 |
| 20260509152535 | 65 | 259 | 0.9 | 5.2 | 0.00 | 0.00 | 0.00 | 58 | 1011.5 |
| 20260509152038 | 65 | 182 | 0.9 | 5.2 | 0.00 | 0.00 | 0.00 | 57 | 1011.6 |
| 20260509151549 | 65 | 259 | 1.7 | 5.2 | 0.00 | 0.00 | 0.00 | 56 | 1011.5 |
| 20260509151037 | 65 | 143 | 0.9 | 3.5 | 0.00 | 0.00 | 0.00 | 58 | 1011.7 |
| 20260509150535 | 65 | 248 | 0.0 | 2.6 | 0.00 | 0.00 | 0.00 | 61 | 1011.6 |
| 20260509150049 | 65 | 0 | 0.9 | 4.3 | 0.00 | 0.00 | 0.00 | 58 | 1011.7 |
| 20260509145536 | 65 | 162 | 1.7 | 4.3 | 0.00 | 0.00 | 0.00 | 58 | 1011.6 |
| 20260509145036 | 65 | 0 | 0.0 | 6.1 | 0.00 | 0.00 | 0.00 | 60 | 1011.6 |
| 20260509144552 | 65 | 166 | 0.0 | 6.1 | 0.00 | 0.00 | 0.00 | 60 | 1011.7 |
| 20260509144036 | 65 | 211 | 0.9 | 6.1 | 0.00 | 0.00 | 0.00 | 63 | 1011.7 |
| 20260509143535 | 64 | 152 | 1.7 | 6.1 | 0.00 | 0.00 | 0.00 | 64 | 1011.6 |
| 20260509143049 | 64 | 109 | 1.7 | 4.3 | 0.00 | 0.00 | 0.00 | 64 | 1011.5 |
| 20260509142535 | 64 | 149 | 2.6 | 5.2 | 0.00 | 0.00 | 0.00 | 64 | 1011.4 |
| 20260509142036 | 63 | 134 | 2.6 | 5.2 | 0.00 | 0.00 | 0.00 | 65 | 1011.4 |
| 20260509141546 | 64 | 157 | 2.6 | 5.2 | 0.00 | 0.00 | 0.00 | 65 | 1011.6 |
| 20260509141036 | 64 | 198 | 0.9 | 3.5 | 0.00 | 0.00 | 0.00 | 66 | 1011.4 |
| 20260509140535 | 63 | 148 | 0.0 | 2.6 | 0.00 | 0.00 | 0.00 | 68 | 1011.3 |
| 20260509140051 | 62 | 181 | 1.7 | 3.5 | 0.00 | 0.00 | 0.00 | 69 | 1011.3 |
| 20260509135535 | 61 | 128 | 1.7 | 4.3 | 0.00 | 0.00 | 0.00 | 67 | 1011.3 |
| 20260509135036 | 60 | 163 | 1.7 | 6.1 | 0.00 | 0.00 | 0.00 | 72 | 1011.4 |
| 20260509134549 | 60 | 172 | 2.6 | 6.1 | 0.00 | 0.00 | 0.00 | 73 | 1011.7 |
| 20260509134034 | 59 | 162 | 4.3 | 5.2 | 0.00 | 0.00 | 0.00 | 75 | 1011.8 |
| 20260509133535 | 59 | 178 | 2.6 | 4.3 | 0.00 | 0.00 | 0.00 | 78 | 1011.8 |
| 20260509133040 | 59 | 241 | 1.7 | 2.6 | 0.00 | 0.00 | 0.00 | 79 | 1011.9 |
| 20260509132535 | 59 | 164 | 0.9 | 1.7 | 0.00 | 0.00 | 0.00 | 77 | 1012.0 |
| 20260509132036 | 58 | 153 | 0.9 | 1.7 | 0.00 | 0.00 | 0.00 | 80 | 1011.9 |
| 20260509131543 | 58 | 0 | 0.0 | 0.9 | 0.00 | 0.00 | 0.00 | 82 | 1011.8 |
| 20260509131035 | 57 | 0 | 0.0 | 0.9 | 0.00 | 0.00 | 0.00 | 85 | 1011.9 |
| 20260509130535 | 56 | 0 | 0.0 | 0.9 | 0.00 | 0.00 | 0.00 | 86 | 1012.0 |
| 20260509130047 | 55 | 0 | 0.0 | 0.9 | 0.00 | 0.00 | 0.00 | 87 | 1012.1 |
| 20260509125540 | 55 | 145 | 0.9 | 0.9 | 0.00 | 0.00 | 0.00 | 87 | 1012.1 |
| 20260509125035 | 54 | 262 | 0.0 | 0.9 | 0.00 | 0.00 | 0.00 | 88 | 1012.1 |
| 20260509124545 | 54 | 0 | 0.0 | 0.0 | 0.00 | 0.00 | 0.00 | 91 | 1012.2 |
| 20260509124035 | 53 | 0 | 0.0 | 0.0 | 0.00 | 0.00 | 0.00 | 90 | 1012.3 |
| 20260509123535 | 52 | 0 | 0.0 | 0.9 | 0.00 | 0.00 | 0.00 | 91 | 1012.3 |
| 20260509123043 | 52 | 0 | 0.0 | 0.9 | 0.00 | 0.00 | 0.00 | 91 | 1012.3 |
| 20260509122536 | 52 | 0 | 0.0 | 1.7 | 0.00 | 0.00 | 0.00 | 91 | 1012.3 |
| 20260509122036 | 51 | 0 | 0.0 | 1.7 | 0.00 | 0.00 | 0.00 | 91 | 1012.4 |
| 20260509121547 | 51 | 4 | 0.9 | 1.7 | 0.00 | 0.00 | 0.00 | 92 | 1012.5 |
| 20260509121036 | 50 | 0 | 0.0 | 1.7 | 0.00 | 0.00 | 0.00 | 92 | 1012.4 |
| 20260509120536 | 50 | 0 | 0.0 | 0.0 | 0.00 | 0.00 | 0.00 | 93 | 1012.4 |
| 20260509120058 | 49 | 0 | 0.0 | 0.0 | 0.00 | 0.00 | 0.00 | 93 | 1012.5 |
| 20260509115535 | 49 | 0 | 0.0 | 0.0 | 0.00 | 0.00 | 0.00 | 93 | 1012.5 |
| 20260509115035 | 48 | 0 | 0.0 | 2.6 | 0.00 | 0.00 | 0.00 | 93 | 1012.6 |
| 20260509114543 | 48 | 0 | 0.9 | 2.6 | 0.00 | 0.00 | 0.00 | 93 | 1012.5 |
| 20260509114037 | 47 | 12 | 1.7 | 2.6 | 0.00 | 0.00 | 0.00 | 94 | 1012.5 |
| 20260509113534 | 47 | 15 | 0.9 | 1.7 | 0.00 | 0.00 | 0.00 | 94 | 1012.5 |
| 20260509113045 | 47 | 0 | 0.0 | 0.0 | 0.00 | 0.00 | 0.00 | 94 | 1012.7 |
| 20260509112535 | 46 | 0 | 0.0 | 0.0 | 0.00 | 0.00 | 0.00 | 94 | 1012.5 |
| 20260509112036 | 46 | 0 | 0.0 | 0.0 | 0.00 | 0.00 | 0.00 | 94 | 1012.5 |
| 20260509111542 | 46 | 0 | 0.0 | 1.7 | 0.00 | 0.00 | 0.00 | 94 | 1012.4 |
| 20260509111036 | 46 | 0 | 0.9 | 2.6 | 0.00 | 0.00 | 0.00 | 94 | 1012.3 |
| 20260509110534 | 46 | 8 | 1.7 | 2.6 | 0.00 | 0.00 | 0.00 | 94 | 1012.3 |
| 20260509110044 | 45 | 11 | 0.9 | 2.6 | 0.00 | 0.00 | 0.00 | 94 | 1012.3 |
| 20260509105535 | 45 | 352 | 0.9 | 1.7 | 0.00 | 0.00 | 0.00 | 94 | 1012.2 |
| 20260509105035 | 45 | 354 | 0.9 | 1.7 | 0.00 | 0.00 | 0.00 | 94 | 1012.3 |